www.pogodaiklimat.ru

Погода и климат >> Архив погоды >> Новая Зеландия >> Вестпорт


ПОГОДА в Вестпорте

  • Прогноз погоды в Вестпорте
  • Монитор погоды в Вестпорте

АРХИВ ПОГОДЫ в Вестпорте

Время (UTC), дата Ветер
(напр.,м/с)
 
Видим.   Явления Облачность Т
(С)
Тd
(С)
f
(%)
Тe
(С)
Тes
(С)
Комфортность P
(гПа)
Po
(гПа)
Тmin
(С)
Tmax
(С)
R
(мм)
R24
(мм)
S
(см)
18 10.07 В 2 1000 м н/о +8.4 +7.4 93 +7 +7 1013.1 1012.6 0.4
21 10.07 ЮВ 2 4000 м н/о +7.7 +7.0 95 +6 +6 1014.8 1014.3
00 11.07 С 2 4000 м н/о +13.8 +9.3 74 +14 +14 1015.7 1015.2 +6.6 17
03 11.07 С 3 4000 м н/о +12.7 +8.5 76 +11 +11 1015.0 1014.5
06 11.07 СВ 4 20 км н/о +10.8 +8.4 85 +8 +8 1015.4 1014.9
09 11.07 ЮВ 3 20 км н/о +9.8 +8.1 89 +8 +8 1015.6 1015.1
12 11.07 ЮВ 3 20 км н/о +8.6 +7.4 92 +6 +6 1015.1 1014.6 +15.2
15 11.07 В 2 20 км н/о +9.4 +7.3 87 +8 +8 1013.2 1012.7
18 11.07 СВ 6 20 км н/о +12.3 +9.0 80 +10 +10 1010.9 1010.4
21 11.07 СВ 8 20 км н/о +12.9 +8.6 75 +10 +10 1009.2 1008.7
00 12.07 С 12 2000 м н/о +10.4 +8.8 90 +6 +6 1007.3 1006.8 +8.2 6
03 12.07 СВ 5 10 км н/о +11.7 +10.5 92 +9 +9 1005.2 1004.7
06 12.07 Ю 1 20 км н/о +10.2 +9.0 92 +11 +11 1007.2 1006.7 19
09 12.07 З 2 1000 м н/о +10.5 +9.7 95 +9 +9 1009.2 1008.7
12 12.07 В 3 4000 м н/о +10.3 +9.3 94 +8 +8 1010.7 1010.2 +13.6 5
15 12.07 ЮВ 3 10 км н/о +8.9 +7.9 93 +6 +6 1011.6 1011.1
18 12.07 ЮВ 3 4000 м н/о +7.2 +6.5 95 +4 +4 1012.0 1011.5 0.2
21 12.07 ЮВ 2 10 км н/о +9.9 +9.2 95 +8 +8 1013.4 1012.9
00 13.07 СВ 6 10 км н/о +14.1 +11.4 84 +12 +12 1012.7 1012.2 +7.1 24
03 13.07 СВ 6 4000 м н/о +13.3 +10.8 85 +11 +11 1010.0 1009.5
06 13.07 СВ 9 4000 м н/о +12.8 +10.9 88 +10 +10 1007.8 1007.3 0.8
09 13.07 СВ 11 4000 м н/о +13.7 +12.0 89 +10 +10 1005.5 1005.0
12 13.07 СВ 13 2000 м н/о +13.7 +12.4 92 +10 +10 1000.5 1000.0 +14.3 2
15 13.07 С 14 2000 м н/о +13.9 +12.8 93 +10 +10 994.5 994.1
18 13.07 С 8 4000 м н/о +13.4 +11.6 89 +11 +11 989.8 989.4 9
21 13.07 СЗ 10 2000 м н/о +11.7 +9.6 87 +8 +8 990.4 989.9
00 14.07 З 9 4000 м н/о +12.5 +7.9 74 +9 +9 990.8 990.4 +11.6 15
03 14.07 Ю 2 20 км н/о +9.9 +7.6 86 +8 +8 990.8 990.3
06 14.07 З 9 4000 м н/о +9.1 +6.6 84 +5 +5 991.7 991.2 7
09 14.07 В 3 10 км н/о +8.0 +6.8 92 +5 +5 994.0 993.5
12 14.07 СВ 5 10 км н/о +8.9 +7.3 90 +5 +5 995.2 994.7 +14.5 9
15 14.07 ЮЗ 2 10 км н/о +7.1 +5.3 88 +5 +5 997.1 996.6
18 14.07 ЮВ 2 200 м н/о +3.9 +3.0 94 +1 +1 999.1 998.6 2
21 14.07 ЮВ 3 20 км н/о +5.0 +4.2 95 +1 +1 1001.5 1001.0
00 15.07 СВ 5 10 км н/о +10.5 +6.0 74 +8 +8 1001.3 1000.8 +3.6 19
03 15.07 СВ 7 10 км н/о +10.8 +5.6 70 +7 +7 997.8 997.3
06 15.07 В 9 4000 м н/о +9.7 +7.5 86 +5 +5 994.9 994.4 3
09 15.07 СВ 9 4000 м н/о +9.6 +8.1 90 +5 +5 992.4 991.9
12 15.07 СВ 6 4000 м н/о +10.1 +8.8 92 +7 +7 988.1 987.6 +12.0 22
15 15.07 СЗ 2 2000 м н/о +10.4 +9.0 91 +9 +9 987.9 987.4
18 15.07 ЮЗ 2 10 км н/о +9.8 +8.9 94 +9 +9 987.6 987.1 2
21 15.07 ЮВ 3 10 км н/о +8.7 +7.7 93 +6 +6 988.2 987.7
00 16.07 СВ 1 4000 м н/о +9.9 +8.9 93 +9 +9 989.0 988.5 +8.7 33
03 16.07 З 8 10 км н/о +12.4 +7.8 74 +9 +9 989.4 989.0
06 16.07 ЮЗ 2 10 км н/о +9.5 +5.3 75 +8 +8 989.5 989.0 2
09 16.07 В 4 10 км н/о +7.8 +6.6 92 +4 +4 988.2 987.7
12 16.07 СВ 7 4000 м н/о +9.5 +8.3 92 +6 +6 986.5 986.0 +12.6 3
15 16.07 З 10 4000 м н/о +10.2 +7.6 84 +6 +6 986.5 986.0
18 16.07 З 12 4000 м н/о +11.6 +7.0 73 +7 +7 985.7 985.3 0.8
21 16.07 ЮЗ 8 20 км н/о +10.6 +5.3 70 +7 +7 989.9 989.4
00 17.07 ЮЗ 8 10 км н/о +9.2 +4.9 74 +5 +5 990.9 990.4 +7.6 9
03 17.07 ЮЗ 6 10 км н/о +7.9 +5.1 82 +4 +4 991.6 991.1
06 17.07 ЮЗ 3 10 км н/о +6.8 +4.9 88 +4 +4 994.6 994.1 5
09 17.07 ЮВ 2 20 км н/о +4.9 +4.0 94 +2 +2 998.3 997.8
12 17.07 ЮВ 2 20 км н/о +4.7 +3.8 94 +2 +2 1000.5 1000.0 +11.8 1
15 17.07 ЮВ 2 10 км н/о +5.6 +4.8 95 +3 +3 1001.8 1001.3

 

Местоположение метеостанции Вестпорт (Новая Зеландия): широта -41.73 долгота 171.56 высота над уровнем моря 5 м.

В архиве по умолчанию представлена погода в Вестпорте за последнюю неделю. Архивные данные за месяц целиком и за предыдущие месяцы, начиная с января 2011 года, Вы можете получить, выбрав интересующий диапазон дат из раскрывающегося списка и нажав кнопку "Ввод!".


*Определитесь, кто Вы:
робот инопланетянин человек

Внимание! Время в таблицах - всемирное. Для получения местного времени необходимо прибавить поправку, которая равна 12 ч.

Смотрите также архив погоды в соседних городах и на ближайших метеорологических станциях:

Погода в Хокитике (Новая Зеландия) (119 км)
Погода в Нельсоне (Новая Зеландия) (148 км)
Погода на Косе Farewell (Новая Зеландия) (178 км)
Погода в Кайкуре (Новая Зеландия) (192 км)
Погода в Крайстчерче (Новая Зеландия) (210 км)
Погода на Мысе Кэмпбелл (Новая Зеландия) (219 км)
Погода в Веллингтоне (Новая Зеландия) (273 км)
Погода в Тимару (Новая Зеландия) (287 км)
Погода в Парапарауму (Новая Зеландия) (300 км)
Погода в Хаасте (Новая Зеландия) (316 км)

Пояснения к столбцам:

Ветер - указаны скорость ветра в м/с - средняя за 10 мин, порывы в срок и между сроками (в фигурных скобках) и направление, откуда дует ветер: С - северный, СВ - северо-восточный, В - восточный, ЮВ - юго-восточный, Ю - южный, ЮЗ - юго-западный, З - западный, СЗ - северо-западный.
Видимость - горизонтальная дальность видимости в метрах или километрах. При видимости от 1 до 10 км при отсутствии осадков обычно наблюдается дымка, при ухудшении видимости до 1 км и менее - туман. В сухую погоду видимость может ухудшаться дымом, пылью или мглою.
Явления - указаны атмосферные явления, наблюдавшиеся в срок или в последний час перед сроком; фигурными скобками обозначены явления, наблюдавшиеся между сроками (за 1-3 часа до срока); квадратными скобками обозначены град или гололедные отложения с указанием их диаметра в мм.
Облачность - указаны через наклонную черту общая и нижняя облачность в баллах и высота нижней границы облаков в метрах; квадратными скобками обозначены формы облаков: Ci - перистые, Cs - перисто-слоистые, Cc - перисто-кучевые, Ac - высококучевые, As - высокослоистые, Sc - слоисто-кучевые, Ns - слоисто-дождевые, Cu - кучевые, Cb - кучево-дождевые. Подробнее классификацию облаков см. в Атласе облаков (PDF).
T - Температура воздуха - температура, измеренная на высоте 2 м над землей.
Td - Температура точки росы - температура, при понижении до которой содержащийся в воздухе водяной пар достигнет насыщения.
f - Относительная влажность воздуха - влажноcть воздуха, измеренная на высоте 2 м над землей.
Te - Эффективная температура - температура, которую ощущает одетый по сезону человек в тени. Характеристика душности погоды. При расчете учитывается влияние влажности воздуха и скорости ветра на теплоощущения человека.
Tes - Эффективная температура на солнце - температура, которую ощущает человек, с поправкой на солнечный нагрев. Характеристика знойности погоды. Зависит от высоты солнца над горизонтом, облачности и скорости ветра. Ночью, в пасмурную погоду, а также при ветре 12 м/с и более поправка равна нулю.
P - Атмосферное давление - приведенное к уровню моря атмосферное давление.
Po - Атмосферное давление - измеренное на уровне метеостанции атмосферное давление.
Tmin - Минимальная температура - минимум температуры воздуха на высоте 2 м над землей.
Tmax - Максимальная температура - максимум температуры воздуха на высоте 2 м над землей.
R - Количество осадков - Количество выпавших осадков за период времени, мм. При наведении курсора мыши на число - период времени, за который выпало указанное количество осадков.
R24 - Количество осадков - Количество выпавших осадков за 24 часа, мм.
S - Снежный покров - Высота снежного покрова, см. При наведении курсора мыши на число - состояние снежного покрова и степень покрытия местности в баллах.